Location: Recife
(8.0585°S, 34.8848°W)
Time: 14:38:31
(UTC-03:00)

Tiros 1 despin weight - Pass Details

Date: 19 April 2026
Orbit: 555 x 591 km, 48.2° (Epoch: 14 May)

Event Time Altitude Azimuth Distance (km) Brightness Sun altitude
Rises 01:19:05 0° 281° (W) 2,811 - -60.2°
Reaches altitude 10° 01:22:40 10° 251° (WSW) 1,912 - -59.3°
Maximum altitude 01:24:30 12° 226° (SW) 1,760 - -58.9°
Drops below altitude 10° 01:26:21 10° 201° (SSW) 1,911 - -58.4°
Sets 01:29:56 0° 171° (S) 2,808 - -57.5°
